Voltar ao catálogo

TIANTONG-1 3

AtivoComunicaçõesGEO
NORAD 47321·PAYLOAD·🇨🇳 China

Lançado Jan 19, 2021 de Xichang Satellite Launch Center

Loading…

TLE

AtualizadoSource: Space-Track

Época: Sep 14, 2026, 22:44 UTC

1 47321U 21003A   26257.94765419 -.00000161  00000-0  00000-0 0  9999
2 47321   1.7022 345.0535 0003311 202.5517 228.9637  1.00270098 20866

Acompanhe TIANTONG-1 3 em tempo real com AllMySat

Download on the App Store